This demonstration page uses our WeatherBlox Daily Observations layout. Learn more.

Left ArrowRight Arrow

53.62937, 11.41316

Hourly Observations for April 11, 2019

Temp ( °F °C ) Dew Point ( °F °C ) Humidity (%) Winds ( mph kmh ) Pressure ( in mb ) Visibility ( mi km ) Precip ( " mm )
7:20 am 07:20 Partly Cloudy 32 0 30 -1 93 93 ENE 7 11 30.27 1025 30 48 N/A
7:50 am 07:50 Mostly Sunny 36 2 30 -1 81 81 E 6 9 30.27 1025 7 11 N/A
8:20 am 08:20 Mostly Sunny 36 2 30 -1 81 81 E 5 7 30.27 1025 7 11 N/A
8:50 am 08:50 Mostly Sunny 37 3 30 -1 75 75 E 6 9 30.30 1026 7 11 N/A
9:20 am 09:20 Mostly Sunny 37 3 30 -1 75 75 E 6 9 30.30 1026 7 11 N/A
9:50 am 09:50 Mostly Sunny 39 4 30 -1 70 70 E 6 9 30.30 1026 7 11 N/A
10:20 am 10:20 Mostly Sunny 39 4 30 -1 70 70 E 6 9 30.30 1026 7 11 N/A
10:50 am 10:50 Partly Cloudy 39 4 30 -1 70 70 E 8 13 30.30 1026 30 48 N/A
11:20 am 11:20 Partly Cloudy 43 6 30 -1 61 61 E 7 11 30.30 1026 30 48 N/A
11:50 am 11:50 Mostly Cloudy 41 5 30 -1 66 66 E 9 15 30.30 1026 30 48 N/A
12:20 pm 12:20 Mostly Cloudy 41 5 30 -1 66 66 ENE 7 11 30.30 1026 30 48 N/A
12:50 pm 12:50 Mostly Cloudy 43 6 28 -2 57 57 ENE 6 9 30.30 1026 30 48 N/A
1:20 pm 13:20 Mostly Cloudy 41 5 28 -2 61 61 NE 9 15 30.33 1027 30 48 N/A
1:50 pm 13:50 Mostly Sunny 43 6 28 -2 57 57 NE 7 11 30.33 1027 7 11 N/A
2:20 pm 14:20 Mostly Cloudy 43 6 28 -2 57 57 E 7 11 30.33 1027 30 48 N/A
2:50 pm 14:50 Mostly Cloudy 41 5 32 0 70 70 NE 12 19 30.33 1027 30 48 N/A
3:20 pm 15:20 Mostly Sunny 41 5 30 -1 66 66 ENE 9 15 30.33 1027 7 11 N/A
3:50 pm 15:50 Mostly Sunny 41 5 28 -2 61 61 NE 10 17 30.33 1027 7 11 N/A
4:20 pm 16:20 Mostly Sunny 43 6 30 -1 61 61 NE 10 17 30.33 1027 7 11 N/A
4:50 pm 16:50 Mostly Sunny 43 6 30 -1 61 61 NE 8 13 30.33 1027 30 48 N/A
5:20 pm 17:20 Partly Cloudy 41 5 27 -3 57 57 NE 12 19 30.30 1026 30 48 N/A
5:50 pm 17:50 Mostly Sunny 41 5 28 -2 61 61 NE 12 19 30.30 1026 30 48 N/A
6:20 pm 18:20 Mostly Sunny 41 5 28 -2 61 61 NE 13 20 30.30 1026 30 48 N/A
6:50 pm 18:50 Mostly Sunny 41 5 28 -2 61 61 NE 13 20 30.33 1027 30 48 N/A
7:20 pm 19:20 Mostly Sunny 39 4 28 -2 65 65 NE 9 15 30.33 1027 7 11 N/A
7:50 pm 19:50 Mostly Sunny 39 4 28 -2 65 65 NE 9 15 30.33 1027 7 11 N/A
8:20 pm 20:20 Mostly Clear 39 4 28 -2 65 65 NE 8 13 30.33 1027 30 48 N/A
8:50 pm 20:50 Mostly Clear 39 4 28 -2 65 65 E 9 15 30.36 1028 30 48 N/A

Powered by AerisWeather